DELTA 1 DEB, 10338

Orbit data source: Space-Track

DELTA 1 DEB, 10338 is space debris in LEO originally from a launch on Thu, 14 Jul 1977 UTC launched from the Air Force Eastern Test Range (AFETR). Debris objects in space refer to the collection of defunct objects orbiting the Earth. Examples of debris include non-operational satellites, rocket bodies, and fragments generated from explosions, collisions, or faulty payload assembly.

Loading next visibility...
Identifier
10338, 1977-065DM
Orbit
LEO
Country
Flag of USUS
Related business
Manufacturer
Unknown
Mission
Spacecraft
Bus & Motor
Unknown
Mass
Unknown
Launch date (UTC)
1977-07-14 (49 years ago)
Launch vehicle
Unknown
Launch site
Air Force Eastern Test Range (AFETR)
Object type
Payload
Rocket body
Debris
Shape & HBR
Unknown shape, 0.1 m
Radar Cross Section
Medium (>0.1 m² and <1 m²)

Expand to show TLE details & history
Last TLE update: 9 hours ago

TLE from 9 hours ago
0 DELTA 1 DEB
1 10338U 77065DM  26263.04248204  .00000675  00000-0  10129-3 0  9997
2 10338  29.0628 180.8182 0615662 248.5186 104.8667 13.84555031426911
Epoch: 2026-09-20T01:01Z
TLE epoch observation values (Epoch: 2026-09-20T01:01:10.448Z)
Latitude
0.00003°
Longitude
166.58237°
Altitude
1,087.141 km
Speed
7.24 km/s
True Right ascension
12h 03m 16s
True Declination
0° 00' 00"
Sunlit
Object was in daylight at epoch
Visualization orbit readout
Latitude
Unknown
Longitude
Unknown
Altitude
Unknown
Speed
Unknown
Apparent Right ascension
Unknown
Apparent Declination
Unknown
Sunlit
N/A
Visualization observer readout
Local Sidereal Time
02:39:07
Azimuth
Unknown
Elevation
Unknown
Doppler factor
Unknown
Orbital elements
Apogee altitude
1,402.956 km
Perigee altitude
500.418 km
Semi-major axis
7,329.824 km
Eccentricity
0.06157
Inclination
29.0628°
RAAN
180.8182°
Arg. of periapsis
248.5186°
True anomaly
111.53831°
Mean anomaly
104.8667°
Eccentric anomaly
108.21738°
Mean motion
3.45862 °/min
Orbital period
104.09 mins
BSTAR
0.00010129
Loading maneuver chart data...
Computing Atmospheric mass density...
Loading historical data...
Loading historical data...
Loading historical data...
Loading historical data...
Loading historical data...
Loading historical data...
Loading historical data...

Documentation

Showing up to 5 results
|